STARLINK-1932, 46770

Orbit data source: Space-Track

STARLINK-1932, 46770 is a payload satellite owned by SpaceX/Seattle (US) in LEO that was launched on Sat, 24 Oct 2020 UTC via an FALCON 9 launch vehicle from the Air Force Eastern Test Range (AFETR). Payloads include a variety of satellites, spacecraft, and rockets equipped with specific instruments for various scientific and technological missions. These include communications satellites like Starlink; space stations such as the ISS; scientific satellites like the Hubble; Earth observation satellites from companies like Planet Labs, Umbra, and HawkEye 360; GPS; miniature CubeSats for education and research; and military/defense satellites.

Loading next visibility...
STARLINK-1932 details
Identifier
46770, 2020-074AH
Orbit
LEO
Last TLE update4 hours ago
Origin
Flag of USSpaceX/Seattle (US)
ManufacturerSpaceX/Seattle
MissionPartially operational Commercial Communications
Bus & MotorSTARLINK, Unknown motor
Mass260 kg wet, ~248 kg dry
Launch date (UTC)
2020-10-24 (4 years ago)
Launch vehicle
FALCON 9
Launch site
Air Force Eastern Test Range (AFETR)
Object type
Payload
Rocket body
Debris
Shape & HBRBox + 1 Pan, 8.86 m
Radar Cross Section13.562 m², Large (>1 m²)

Expand to show TLE details & history

TLE from 4 hours ago
0 STARLINK-1932
1 46770U 20074AH  24361.25001157  .00342505  00000-0  53918-2 0  9991
2 46770  53.0519 134.1941 0001097  64.2921 227.8476 15.51851637230545
Epoch: 2024-12-26T06:00Z
Definitive object data (Epoch: 2024-12-26T06:00:00.999Z)
Latitude-47.93875°
Longitude-107.02814°
Altitude428.225 km
Speed7.654 km/s
True Right ascension05h 12m 49s
True Declination-47° 45' 34"
Sunlit
Object was in daylight at TLE epoch
Visualization TLE readout
Latitude-32.13086°
Longitude156.10668°
Altitude421.6 km
Speed7.658 km/s
Apparent Right ascension22h 15m 53s
Apparent Declination-35° 59' 18"
Sunlit
Object is in daylight
Visualization observer readout
Local Sidereal Time09:41:10
Azimuth297.124° NW
Elevation-82.114°
Doppler factor1
Orbital elements
Apogee altitude412.341 km
Perigee altitude410.852 km
Semi-major axis6,789.733 km
Eccentricity0.0001097
Inclination53.0519°
RAAN134.1941°
Arg. of periapsis64.2921°
True anomaly227.83828°
Mean anomaly227.8476°
Eccentric anomaly227.84294°
Mean motion3.8794 °/min
BSTAR0.0053918
Orbital period92.8 mins
Loading maneuver chart data...

STARLINK-1932 Visibility forecast

Observer location: undefined°, undefined

Span
Click to sort rows by Start time (UTC) header in descending order
Start Az.
Max El. time (UTC)
Max El. Az.
Max El.
End time (UTC)
End Az.
4 mins2024-12-26 11:05:00.312Z179.015° S2024-12-26 11:07:00.312Z140.215° SSE19.091°2024-12-26 11:09:00.312Z92.103° ESE
4 mins2024-12-26 12:42:00.312Z270.085° WNW2024-12-26 12:44:00.312Z341.96° N30.859°2024-12-26 12:46:00.312Z30.692° NE
4 mins2024-12-26 19:11:00.312Z290.047° WNW2024-12-26 19:13:00.312Z213.585° SW36.164°2024-12-26 19:15:00.312Z155.475° SSE
|